owner,sensor,date,latitude,longitude,vertical_datum,mass_concentration_of_oxygen_in_sea_water,qcFlag 
DISL,ioos:station:DISL:BSCA:1,2011-11-01T00:00:00Z,30.3288,-87.8293,1.669,9.13,1111122 
DISL,ioos:station:DISL:BSCA:1,2011-11-01T00:30:00Z,30.3288,-87.8293,1.695,9.22,1111122 
DISL,ioos:station:DISL:BSCA:1,2011-11-01T01:00:00Z,30.3288,-87.8293,1.724,8.96,1111122 
DISL,ioos:station:DISL:BSCA:1,2011-11-01T01:30:00Z,30.3288,-87.8293,1.742,8.91,1111122 
DISL,ioos:station:DISL:BSCA:1,2011-11-01T02:00:00Z,30.3288,-87.8293,1.784,8.76,1111122 
DISL,ioos:station:DISL:BSCA:1,2011-11-01T02:30:00Z,30.3288,-87.8293,1.815,8.75,1111122 
DISL,ioos:station:DISL:BSCA:1,2011-11-01T03:00:00Z,30.3288,-87.8293,1.84,8.74,1111122 
DISL,ioos:station:DISL:BSCA:1,2011-11-01T03:30:00Z,30.3288,-87.8293,1.873,8.57,1111122 
DISL,ioos:station:DISL:BSCA:1,2011-11-01T04:00:00Z,30.3288,-87.8293,1.905,8.6,1111122 
DISL,ioos:station:DISL:BSCA:1,2011-11-01T04:30:00Z,30.3288,-87.8293,1.933,8.32,1111122 
DISL,ioos:station:DISL:BSCA:1,2011-11-01T05:00:00Z,30.3288,-87.8293,1.966,8.4,1111122 
DISL,ioos:station:DISL:BSCA:1,2011-11-01T05:30:00Z,30.3288,-87.8293,1.985,8.54,1111122 
DISL,ioos:station:DISL:BSCA:1,2011-11-01T06:00:00Z,30.3288,-87.8293,1.996,8.54,1111122 
DISL,ioos:station:DISL:BSCA:1,2011-11-01T06:30:00Z,30.3288,-87.8293,2.012,8.41,1111122 
DISL,ioos:station:DISL:BSCA:1,2011-11-01T07:00:00Z,30.3288,-87.8293,2.026,8.3,1111122 
DISL,ioos:station:DISL:BSCA:1,2011-11-01T07:30:00Z,30.3288,-87.8293,2.03,8.32,1111122 
DISL,ioos:station:DISL:BSCA:1,2011-11-01T08:00:00Z,30.3288,-87.8293,2.035,8.36,1111122 
DISL,ioos:station:DISL:BSCA:1,2011-11-01T08:30:00Z,30.3288,-87.8293,2.033,8.26,1111122 
DISL,ioos:station:DISL:BSCA:1,2011-11-01T09:00:00Z,30.3288,-87.8293,2.02,8.28,1111122 
DISL,ioos:station:DISL:BSCA:1,2011-11-01T09:30:00Z,30.3288,-87.8293,1.998,8.44,1111122 
DISL,ioos:station:DISL:BSCA:1,2011-11-01T10:00:00Z,30.3288,-87.8293,1.977,8.19,1111122 
DISL,ioos:station:DISL:BSCA:1,2011-11-01T10:30:00Z,30.3288,-87.8293,1.944,7.95,1111122 
DISL,ioos:station:DISL:BSCA:1,2011-11-01T11:00:00Z,30.3288,-87.8293,1.916,8.11,1111122 
DISL,ioos:station:DISL:BSCA:1,2011-11-01T11:30:00Z,30.3288,-87.8293,1.881,8.09,1111122 
DISL,ioos:station:DISL:BSCA:1,2011-11-01T12:00:00Z,30.3288,-87.8293,1.854,8.09,1111122 
DISL,ioos:station:DISL:BSCA:1,2011-11-01T12:30:00Z,30.3288,-87.8293,1.829,8.14,1111122 
DISL,ioos:station:DISL:BSCA:1,2011-11-01T13:00:00Z,30.3288,-87.8293,1.804,8.07,1111122 
DISL,ioos:station:DISL:BSCA:1,2011-11-01T13:30:00Z,30.3288,-87.8293,1.773,8.01,1111122 
DISL,ioos:station:DISL:BSCA:1,2011-11-01T14:00:00Z,30.3288,-87.8293,1.746,8.1,1111122 
DISL,ioos:station:DISL:BSCA:1,2011-11-01T14:30:00Z,30.3288,-87.8293,1.725,8.21,1111122 
DISL,ioos:station:DISL:BSCA:1,2011-11-01T15:00:00Z,30.3288,-87.8293,1.688,8.22,1111122 
DISL,ioos:station:DISL:BSCA:1,2011-11-01T15:30:00Z,30.3288,-87.8293,1.662,8.38,1111122 
DISL,ioos:station:DISL:BSCA:1,2011-11-01T16:00:00Z,30.3288,-87.8293,1.641,8.5,1111122 
DISL,ioos:station:DISL:BSCA:1,2011-11-01T16:30:00Z,30.3288,-87.8293,1.611,8.58,1111122 
DISL,ioos:station:DISL:BSCA:1,2011-11-01T17:00:00Z,30.3288,-87.8293,1.582,8.57,1111122 
DISL,ioos:station:DISL:BSCA:1,2011-11-01T17:30:00Z,30.3288,-87.8293,1.57,8.67,1111122 
DISL,ioos:station:DISL:BSCA:1,2011-11-01T18:00:00Z,30.3288,-87.8293,1.564,8.71,1111122 
DISL,ioos:station:DISL:BSCA:1,2011-11-01T18:30:00Z,30.3288,-87.8293,1.563,8.68,1111122 
DISL,ioos:station:DISL:BSCA:1,2011-11-01T19:00:00Z,30.3288,-87.8293,1.568,8.58,1111122 
DISL,ioos:station:DISL:BSCA:1,2011-11-01T19:30:00Z,30.3288,-87.8293,1.566,8.78,1111122 
DISL,ioos:station:DISL:BSCA:1,2011-11-01T20:00:00Z,30.3288,-87.8293,1.573,8.77,1111122 
DISL,ioos:station:DISL:BSCA:1,2011-11-01T20:30:00Z,30.3288,-87.8293,1.581,8.85,1111122 
DISL,ioos:station:DISL:BSCA:1,2011-11-01T21:00:00Z,30.3288,-87.8293,1.596,8.87,1111122 
DISL,ioos:station:DISL:BSCA:1,2011-11-01T21:30:00Z,30.3288,-87.8293,1.616,8.87,1111122 
DISL,ioos:station:DISL:BSCA:1,2011-11-01T22:00:00Z,30.3288,-87.8293,1.642,8.88,1111122 
DISL,ioos:station:DISL:BSCA:1,2011-11-01T22:30:00Z,30.3288,-87.8293,1.666,8.89,1111122 
DISL,ioos:station:DISL:BSCA:1,2011-11-01T23:00:00Z,30.3288,-87.8293,1.695,8.73,1111122 
DISL,ioos:station:DISL:BSCA:1,2011-11-01T23:30:00Z,30.3288,-87.8293,1.725,8.51,1111122 
DISL,ioos:station:DISL:BSCA:1,2011-11-02T00:00:00Z,30.3288,-87.8293,1.754,8.37,1111122 
DISL,ioos:station:DISL:BSCA:1,2011-11-02T00:30:00Z,30.3288,-87.8293,1.793,8.44,1111122 
DISL,ioos:station:DISL:BSCA:1,2011-11-02T01:00:00Z,30.3288,-87.8293,1.807,8.55,1111122 
DISL,ioos:station:DISL:BSCA:1,2011-11-02T01:30:00Z,30.3288,-87.8293,1.838,8.67,1111122 
DISL,ioos:station:DISL:BSCA:1,2011-11-02T02:00:00Z,30.3288,-87.8293,1.867,8.29,1111122 
DISL,ioos:station:DISL:BSCA:1,2011-11-02T02:30:00Z,30.3288,-87.8293,1.88,8.41,1111122 
DISL,ioos:station:DISL:BSCA:1,2011-11-02T03:00:00Z,30.3288,-87.8293,1.902,8.03,1111122 
DISL,ioos:station:DISL:BSCA:1,2011-11-02T03:30:00Z,30.3288,-87.8293,1.929,8.22,1111122 
DISL,ioos:station:DISL:BSCA:1,2011-11-02T04:00:00Z,30.3288,-87.8293,1.944,8.33,1111122 
DISL,ioos:station:DISL:BSCA:1,2011-11-02T04:30:00Z,30.3288,-87.8293,1.964,8.09,1111122 
DISL,ioos:station:DISL:BSCA:1,2011-11-02T05:00:00Z,30.3288,-87.8293,1.984,8.07,1111122 
DISL,ioos:station:DISL:BSCA:1,2011-11-02T05:30:00Z,30.3288,-87.8293,1.995,8.0,1111122 
DISL,ioos:station:DISL:BSCA:1,2011-11-02T06:00:00Z,30.3288,-87.8293,2.01,8.08,1111122 
DISL,ioos:station:DISL:BSCA:1,2011-11-02T06:30:00Z,30.3288,-87.8293,2.023,7.91,1111122 
DISL,ioos:station:DISL:BSCA:1,2011-11-02T07:00:00Z,30.3288,-87.8293,2.028,7.83,1111122 
DISL,ioos:station:DISL:BSCA:1,2011-11-02T07:30:00Z,30.3288,-87.8293,2.035,7.71,1111122 
DISL,ioos:station:DISL:BSCA:1,2011-11-02T08:00:00Z,30.3288,-87.8293,2.037,8.11,1111122 
DISL,ioos:station:DISL:BSCA:1,2011-11-02T08:30:00Z,30.3288,-87.8293,2.033,7.71,1111122 
DISL,ioos:station:DISL:BSCA:1,2011-11-02T09:00:00Z,30.3288,-87.8293,2.025,7.99,1111122 
DISL,ioos:station:DISL:BSCA:1,2011-11-02T09:30:00Z,30.3288,-87.8293,2.019,8.13,1111122 
DISL,ioos:station:DISL:BSCA:1,2011-11-02T10:00:00Z,30.3288,-87.8293,2.001,8.12,1111122 
DISL,ioos:station:DISL:BSCA:1,2011-11-02T10:30:00Z,30.3288,-87.8293,1.98,8.11,1111122 
DISL,ioos:station:DISL:BSCA:1,2011-11-02T11:00:00Z,30.3288,-87.8293,1.956,7.94,1111122 
DISL,ioos:station:DISL:BSCA:1,2011-11-02T11:30:00Z,30.3288,-87.8293,1.929,7.93,1111122 
DISL,ioos:station:DISL:BSCA:1,2011-11-02T12:00:00Z,30.3288,-87.8293,1.904,7.97,1111122 
DISL,ioos:station:DISL:BSCA:1,2011-11-02T12:30:00Z,30.3288,-87.8293,1.871,7.89,1111122 
DISL,ioos:station:DISL:BSCA:1,2011-11-02T13:00:00Z,30.3288,-87.8293,1.844,7.86,1111122 
DISL,ioos:station:DISL:BSCA:1,2011-11-02T13:30:00Z,30.3288,-87.8293,1.813,8.16,1111122 
DISL,ioos:station:DISL:BSCA:1,2011-11-02T14:00:00Z,30.3288,-87.8293,1.784,8.14,1111122 
DISL,ioos:station:DISL:BSCA:1,2011-11-02T14:30:00Z,30.3288,-87.8293,1.753,8.15,1111122 
DISL,ioos:station:DISL:BSCA:1,2011-11-02T15:00:00Z,30.3288,-87.8293,1.726,8.26,1111122 
DISL,ioos:station:DISL:BSCA:1,2011-11-02T15:30:00Z,30.3288,-87.8293,1.705,8.42,1111122 
DISL,ioos:station:DISL:BSCA:1,2011-11-02T16:00:00Z,30.3288,-87.8293,1.685,8.54,1111122 
DISL,ioos:station:DISL:BSCA:1,2011-11-02T16:30:00Z,30.3288,-87.8293,1.666,8.63,1111122 
DISL,ioos:station:DISL:BSCA:1,2011-11-02T17:00:00Z,30.3288,-87.8293,1.653,8.67,1111122 
DISL,ioos:station:DISL:BSCA:1,2011-11-02T17:30:00Z,30.3288,-87.8293,1.644,8.74,1111122 
DISL,ioos:station:DISL:BSCA:1,2011-11-02T18:00:00Z,30.3288,-87.8293,1.628,8.71,1111122 
DISL,ioos:station:DISL:BSCA:1,2011-11-02T18:30:00Z,30.3288,-87.8293,1.629,8.75,1111122 
DISL,ioos:station:DISL:BSCA:1,2011-11-02T19:00:00Z,30.3288,-87.8293,1.631,8.74,1111122 
DISL,ioos:station:DISL:BSCA:1,2011-11-02T19:30:00Z,30.3288,-87.8293,1.626,8.66,1111122 
DISL,ioos:station:DISL:BSCA:1,2011-11-02T20:00:00Z,30.3288,-87.8293,1.63,8.57,1111122 
DISL,ioos:station:DISL:BSCA:1,2011-11-02T20:30:00Z,30.3288,-87.8293,1.639,8.38,1111122 
DISL,ioos:station:DISL:BSCA:1,2011-11-02T21:00:00Z,30.3288,-87.8293,1.642,8.57,1111122 
DISL,ioos:station:DISL:BSCA:1,2011-11-02T21:30:00Z,30.3288,-87.8293,1.648,8.59,1111122 
DISL,ioos:station:DISL:BSCA:1,2011-11-02T22:00:00Z,30.3288,-87.8293,1.653,8.75,1111122 
DISL,ioos:station:DISL:BSCA:1,2011-11-02T22:30:00Z,30.3288,-87.8293,1.66,8.87,1111122 
DISL,ioos:station:DISL:BSCA:1,2011-11-02T23:00:00Z,30.3288,-87.8293,1.685,8.0,1111122 
DISL,ioos:station:DISL:BSCA:1,2011-11-02T23:30:00Z,30.3288,-87.8293,1.718,8.17,1111122 
DISL,ioos:station:DISL:BSCA:1,2011-11-03T00:00:00Z,30.3288,-87.8293,1.745,8.15,1111122 
DISL,ioos:station:DISL:BSCA:1,2011-11-03T00:30:00Z,30.3288,-87.8293,1.772,8.13,1111122 
DISL,ioos:station:DISL:BSCA:1,2011-11-03T01:00:00Z,30.3288,-87.8293,1.807,8.07,1111122 
DISL,ioos:station:DISL:BSCA:1,2011-11-03T01:30:00Z,30.3288,-87.8293,1.82,8.15,1111122 
DISL,ioos:station:DISL:BSCA:1,2011-11-03T02:00:00Z,30.3288,-87.8293,1.827,8.19,1111122 
DISL,ioos:station:DISL:BSCA:1,2011-11-03T02:30:00Z,30.3288,-87.8293,1.855,8.18,1111122 
DISL,ioos:station:DISL:BSCA:1,2011-11-03T03:00:00Z,30.3288,-87.8293,1.86,8.01,1111122 
DISL,ioos:station:DISL:BSCA:1,2011-11-03T03:30:00Z,30.3288,-87.8293,1.88,7.54,1111122 
DISL,ioos:station:DISL:BSCA:1,2011-11-03T04:00:00Z,30.3288,-87.8293,1.918,7.63,1111122 
DISL,ioos:station:DISL:BSCA:1,2011-11-03T04:30:00Z,30.3288,-87.8293,1.939,7.62,1111122 
DISL,ioos:station:DISL:BSCA:1,2011-11-03T05:00:00Z,30.3288,-87.8293,1.975,8.05,1111122 
DISL,ioos:station:DISL:BSCA:1,2011-11-03T05:30:00Z,30.3288,-87.8293,1.998,7.98,1111122 
DISL,ioos:station:DISL:BSCA:1,2011-11-03T06:00:00Z,30.3288,-87.8293,2.007,8.43,1111122 
DISL,ioos:station:DISL:BSCA:1,2011-11-03T06:30:00Z,30.3288,-87.8293,2.04,8.27,1111122 
DISL,ioos:station:DISL:BSCA:1,2011-11-03T07:00:00Z,30.3288,-87.8293,2.045,8.53,1111122 
DISL,ioos:station:DISL:BSCA:1,2011-11-03T07:30:00Z,30.3288,-87.8293,2.068,7.95,1111122 
DISL,ioos:station:DISL:BSCA:1,2011-11-03T08:00:00Z,30.3288,-87.8293,2.095,7.91,1111122 
DISL,ioos:station:DISL:BSCA:1,2011-11-03T08:30:00Z,30.3288,-87.8293,2.076,8.34,1111122 
DISL,ioos:station:DISL:BSCA:1,2011-11-03T09:00:00Z,30.3288,-87.8293,2.12,8.32,1111122 
DISL,ioos:station:DISL:BSCA:1,2011-11-03T09:30:00Z,30.3288,-87.8293,2.119,8.27,1111122 
DISL,ioos:station:DISL:BSCA:1,2011-11-03T10:00:00Z,30.3288,-87.8293,2.11,8.34,1111122 
DISL,ioos:station:DISL:BSCA:1,2011-11-03T10:30:00Z,30.3288,-87.8293,2.103,7.81,1111122 
DISL,ioos:station:DISL:BSCA:1,2011-11-03T11:00:00Z,30.3288,-87.8293,2.079,7.34,1111122 
DISL,ioos:station:DISL:BSCA:1,2011-11-03T11:30:00Z,30.3288,-87.8293,2.057,6.87,1111122 
DISL,ioos:station:DISL:BSCA:1,2011-11-03T12:00:00Z,30.3288,-87.8293,2.036,7.42,1111122 
DISL,ioos:station:DISL:BSCA:1,2011-11-03T12:30:00Z,30.3288,-87.8293,2.034,6.92,1111122 
DISL,ioos:station:DISL:BSCA:1,2011-11-03T13:00:00Z,30.3288,-87.8293,2.011,6.49,1111122 
DISL,ioos:station:DISL:BSCA:1,2011-11-03T13:30:00Z,30.3288,-87.8293,1.996,7.21,1111122 
DISL,ioos:station:DISL:BSCA:1,2011-11-03T14:00:00Z,30.3288,-87.8293,1.98,7.56,1111122 
DISL,ioos:station:DISL:BSCA:1,2011-11-03T14:30:00Z,30.3288,-87.8293,1.954,7.48,1111122 
DISL,ioos:station:DISL:BSCA:1,2011-11-03T15:00:00Z,30.3288,-87.8293,1.935,7.12,1111122 
DISL,ioos:station:DISL:BSCA:1,2011-11-03T15:30:00Z,30.3288,-87.8293,1.913,7.53,1111122 
DISL,ioos:station:DISL:BSCA:1,2011-11-03T16:00:00Z,30.3288,-87.8293,1.91,7.16,1111122 
DISL,ioos:station:DISL:BSCA:1,2011-11-03T16:30:00Z,30.3288,-87.8293,1.899,6.96,1111122 
DISL,ioos:station:DISL:BSCA:1,2011-11-03T17:00:00Z,30.3288,-87.8293,1.887,7.59,1111122 
DISL,ioos:station:DISL:BSCA:1,2011-11-03T17:30:00Z,30.3288,-87.8293,1.886,6.8,1111122 
DISL,ioos:station:DISL:BSCA:1,2011-11-03T18:00:00Z,30.3288,-87.8293,1.878,7.95,1111122 
DISL,ioos:station:DISL:BSCA:1,2011-11-03T18:30:00Z,30.3288,-87.8293,1.879,8.44,1111122 
DISL,ioos:station:DISL:BSCA:1,2011-11-03T19:00:00Z,30.3288,-87.8293,1.864,8.52,1111122 
DISL,ioos:station:DISL:BSCA:1,2011-11-03T19:30:00Z,30.3288,-87.8293,1.882,8.51,1111122 
DISL,ioos:station:DISL:BSCA:1,2011-11-03T20:00:00Z,30.3288,-87.8293,1.897,8.64,1111122 
DISL,ioos:station:DISL:BSCA:1,2011-11-03T20:30:00Z,30.3288,-87.8293,1.86,8.71,1111122 
DISL,ioos:station:DISL:BSCA:1,2011-11-03T21:00:00Z,30.3288,-87.8293,1.899,8.63,1111122 
DISL,ioos:station:DISL:BSCA:1,2011-11-03T21:30:00Z,30.3288,-87.8293,1.894,8.4,1111122 
DISL,ioos:station:DISL:BSCA:1,2011-11-03T22:00:00Z,30.3288,-87.8293,1.941,8.34,1111122 
DISL,ioos:station:DISL:BSCA:1,2011-11-03T22:30:00Z,30.3288,-87.8293,1.938,8.15,1111122 
DISL,ioos:station:DISL:BSCA:1,2011-11-03T23:00:00Z,30.3288,-87.8293,1.941,8.13,1111122 
DISL,ioos:station:DISL:BSCA:1,2011-11-03T23:30:00Z,30.3288,-87.8293,1.858,8.19,1111122 
DISL,ioos:station:DISL:BSCA:1,2011-11-04T00:00:00Z,30.3288,-87.8293,1.798,8.27,1111122 
DISL,ioos:station:DISL:BSCA:1,2011-11-04T00:30:00Z,30.3288,-87.8293,1.788,8.3,1111122 
DISL,ioos:station:DISL:BSCA:1,2011-11-04T01:00:00Z,30.3288,-87.8293,1.756,8.2,1111122 
DISL,ioos:station:DISL:BSCA:1,2011-11-04T01:30:00Z,30.3288,-87.8293,1.805,8.16,1111122 
DISL,ioos:station:DISL:BSCA:1,2011-11-04T02:00:00Z,30.3288,-87.8293,1.824,8.19,1111122 
DISL,ioos:station:DISL:BSCA:1,2011-11-04T02:30:00Z,30.3288,-87.8293,1.8,8.16,1111122 
DISL,ioos:station:DISL:BSCA:1,2011-11-04T03:00:00Z,30.3288,-87.8293,1.795,8.2,1111122 
DISL,ioos:station:DISL:BSCA:1,2011-11-04T03:30:00Z,30.3288,-87.8293,1.797,8.3,1111122 
DISL,ioos:station:DISL:BSCA:1,2011-11-04T04:00:00Z,30.3288,-87.8293,1.772,8.33,1111122 
DISL,ioos:station:DISL:BSCA:1,2011-11-04T04:30:00Z,30.3288,-87.8293,1.747,8.27,1111122 
DISL,ioos:station:DISL:BSCA:1,2011-11-04T05:00:00Z,30.3288,-87.8293,1.752,8.21,1111122 
DISL,ioos:station:DISL:BSCA:1,2011-11-04T05:30:00Z,30.3288,-87.8293,1.743,8.21,1111122 
DISL,ioos:station:DISL:BSCA:1,2011-11-04T06:00:00Z,30.3288,-87.8293,1.673,8.16,1111122 
DISL,ioos:station:DISL:BSCA:1,2011-11-04T06:30:00Z,30.3288,-87.8293,1.683,8.13,1111122 
DISL,ioos:station:DISL:BSCA:1,2011-11-04T07:00:00Z,30.3288,-87.8293,1.693,8.11,1111122 
DISL,ioos:station:DISL:BSCA:1,2011-11-04T07:30:00Z,30.3288,-87.8293,1.711,8.1,1111122 
DISL,ioos:station:DISL:BSCA:1,2011-11-04T08:00:00Z,30.3288,-87.8293,1.749,8.06,1111122 
DISL,ioos:station:DISL:BSCA:1,2011-11-04T08:30:00Z,30.3288,-87.8293,1.763,8.02,1111122 
DISL,ioos:station:DISL:BSCA:1,2011-11-04T09:00:00Z,30.3288,-87.8293,1.726,8.02,1111122 
DISL,ioos:station:DISL:BSCA:1,2011-11-04T09:30:00Z,30.3288,-87.8293,1.845,7.98,1111122 
DISL,ioos:station:DISL:BSCA:1,2011-11-04T10:00:00Z,30.3288,-87.8293,1.857,7.96,1111122 
DISL,ioos:station:DISL:BSCA:1,2011-11-04T10:30:00Z,30.3288,-87.8293,1.923,7.95,1111122 
DISL,ioos:station:DISL:BSCA:1,2011-11-04T11:00:00Z,30.3288,-87.8293,1.879,7.94,1111122 
DISL,ioos:station:DISL:BSCA:1,2011-11-04T11:30:00Z,30.3288,-87.8293,1.88,7.94,1111122 
DISL,ioos:station:DISL:BSCA:1,2011-11-04T12:00:00Z,30.3288,-87.8293,1.858,7.91,1111122 
DISL,ioos:station:DISL:BSCA:1,2011-11-04T12:30:00Z,30.3288,-87.8293,1.856,7.91,1111122 
DISL,ioos:station:DISL:BSCA:1,2011-11-04T13:00:00Z,30.3288,-87.8293,1.845,7.81,1111122 
DISL,ioos:station:DISL:BSCA:1,2011-11-04T13:30:00Z,30.3288,-87.8293,1.827,7.87,1111122 
DISL,ioos:station:DISL:BSCA:1,2011-11-04T14:00:00Z,30.3288,-87.8293,1.835,7.88,1111122 
DISL,ioos:station:DISL:BSCA:1,2011-11-04T14:30:00Z,30.3288,-87.8293,1.83,7.9,1111122 
DISL,ioos:station:DISL:BSCA:1,2011-11-04T15:00:00Z,30.3288,-87.8293,1.826,7.96,1111122 
DISL,ioos:station:DISL:BSCA:1,2011-11-04T15:30:00Z,30.3288,-87.8293,1.817,7.99,1111122 
DISL,ioos:station:DISL:BSCA:1,2011-11-04T16:00:00Z,30.3288,-87.8293,1.815,8.01,1111122 
DISL,ioos:station:DISL:BSCA:1,2011-11-04T16:30:00Z,30.3288,-87.8293,1.819,7.99,1111122 
DISL,ioos:station:DISL:BSCA:1,2011-11-04T17:00:00Z,30.3288,-87.8293,1.821,8.06,1111122 
DISL,ioos:station:DISL:BSCA:1,2011-11-04T17:30:00Z,30.3288,-87.8293,1.826,8.06,1111122 
DISL,ioos:station:DISL:BSCA:1,2011-11-04T18:00:00Z,30.3288,-87.8293,1.787,8.1,1111122 
DISL,ioos:station:DISL:BSCA:1,2011-11-04T18:30:00Z,30.3288,-87.8293,1.772,8.1,1111122 
DISL,ioos:station:DISL:BSCA:1,2011-11-04T19:00:00Z,30.3288,-87.8293,1.723,8.11,1111122 
DISL,ioos:station:DISL:BSCA:1,2011-11-04T19:30:00Z,30.3288,-87.8293,1.722,8.12,1111122 
DISL,ioos:station:DISL:BSCA:1,2011-11-04T20:00:00Z,30.3288,-87.8293,1.705,8.17,1111122 
DISL,ioos:station:DISL:BSCA:1,2011-11-04T20:30:00Z,30.3288,-87.8293,1.697,8.13,1111122 
DISL,ioos:station:DISL:BSCA:1,2011-11-04T21:00:00Z,30.3288,-87.8293,1.689,8.19,1111122 
DISL,ioos:station:DISL:BSCA:1,2011-11-04T21:30:00Z,30.3288,-87.8293,1.711,8.24,1111122 
DISL,ioos:station:DISL:BSCA:1,2011-11-04T22:00:00Z,30.3288,-87.8293,1.723,8.27,1111122 
DISL,ioos:station:DISL:BSCA:1,2011-11-04T22:30:00Z,30.3288,-87.8293,1.741,8.25,1111122 
DISL,ioos:station:DISL:BSCA:1,2011-11-04T23:00:00Z,30.3288,-87.8293,1.764,8.32,1111122 
DISL,ioos:station:DISL:BSCA:1,2011-11-04T23:30:00Z,30.3288,-87.8293,1.758,8.3,1111122 
DISL,ioos:station:DISL:BSCA:1,2011-11-05T00:00:00Z,30.3288,-87.8293,1.746,8.27,1111122 
DISL,ioos:station:DISL:BSCA:1,2011-11-05T00:30:00Z,30.3288,-87.8293,1.74,8.27,1111122 
DISL,ioos:station:DISL:BSCA:1,2011-11-05T01:00:00Z,30.3288,-87.8293,1.739,8.24,1111122 
DISL,ioos:station:DISL:BSCA:1,2011-11-05T01:30:00Z,30.3288,-87.8293,1.744,8.23,1111122 
DISL,ioos:station:DISL:BSCA:1,2011-11-05T02:00:00Z,30.3288,-87.8293,1.76,8.24,1111122 
DISL,ioos:station:DISL:BSCA:1,2011-11-05T02:30:00Z,30.3288,-87.8293,1.766,8.23,1111122 
DISL,ioos:station:DISL:BSCA:1,2011-11-05T03:00:00Z,30.3288,-87.8293,1.799,8.2,1111122 
DISL,ioos:station:DISL:BSCA:1,2011-11-05T03:30:00Z,30.3288,-87.8293,1.803,8.22,1111122 
DISL,ioos:station:DISL:BSCA:1,2011-11-05T04:00:00Z,30.3288,-87.8293,1.808,8.15,1111122 
DISL,ioos:station:DISL:BSCA:1,2011-11-05T04:30:00Z,30.3288,-87.8293,1.805,8.16,1111122 
DISL,ioos:station:DISL:BSCA:1,2011-11-05T05:00:00Z,30.3288,-87.8293,1.792,8.12,1111122 
DISL,ioos:station:DISL:BSCA:1,2011-11-05T05:30:00Z,30.3288,-87.8293,1.775,8.18,1111122 
DISL,ioos:station:DISL:BSCA:1,2011-11-05T06:00:00Z,30.3288,-87.8293,1.762,8.12,1111122 
DISL,ioos:station:DISL:BSCA:1,2011-11-05T06:30:00Z,30.3288,-87.8293,1.745,8.11,1111122 
DISL,ioos:station:DISL:BSCA:1,2011-11-05T07:00:00Z,30.3288,-87.8293,1.743,8.12,1111122 
DISL,ioos:station:DISL:BSCA:1,2011-11-05T07:30:00Z,30.3288,-87.8293,1.724,8.06,1111122 
DISL,ioos:station:DISL:BSCA:1,2011-11-05T08:00:00Z,30.3288,-87.8293,1.708,8.08,1111122 
DISL,ioos:station:DISL:BSCA:1,2011-11-05T08:30:00Z,30.3288,-87.8293,1.702,8.04,1111122 
DISL,ioos:station:DISL:BSCA:1,2011-11-05T09:00:00Z,30.3288,-87.8293,1.694,8.05,1111122 
DISL,ioos:station:DISL:BSCA:1,2011-11-05T09:30:00Z,30.3288,-87.8293,1.68,8.07,1111122 
DISL,ioos:station:DISL:BSCA:1,2011-11-05T10:00:00Z,30.3288,-87.8293,1.656,8.02,1111122 
DISL,ioos:station:DISL:BSCA:1,2011-11-05T10:30:00Z,30.3288,-87.8293,1.655,8.07,1111122 
DISL,ioos:station:DISL:BSCA:1,2011-11-05T11:00:00Z,30.3288,-87.8293,1.658,7.84,1111122 
DISL,ioos:station:DISL:BSCA:1,2011-11-05T11:30:00Z,30.3288,-87.8293,1.664,7.65,1111122 
DISL,ioos:station:DISL:BSCA:1,2011-11-05T12:00:00Z,30.3288,-87.8293,1.689,7.68,1111122 
DISL,ioos:station:DISL:BSCA:1,2011-11-05T12:30:00Z,30.3288,-87.8293,1.694,7.64,1111122 
DISL,ioos:station:DISL:BSCA:1,2011-11-05T13:00:00Z,30.3288,-87.8293,1.692,7.61,1111122 
DISL,ioos:station:DISL:BSCA:1,2011-11-05T13:30:00Z,30.3288,-87.8293,1.695,7.7,1111122 
DISL,ioos:station:DISL:BSCA:1,2011-11-05T14:00:00Z,30.3288,-87.8293,1.688,8.02,1111122 
DISL,ioos:station:DISL:BSCA:1,2011-11-05T14:30:00Z,30.3288,-87.8293,1.696,7.93,1111122 
DISL,ioos:station:DISL:BSCA:1,2011-11-05T15:00:00Z,30.3288,-87.8293,1.712,8.0,1111122 
DISL,ioos:station:DISL:BSCA:1,2011-11-05T15:30:00Z,30.3288,-87.8293,1.715,7.99,1111122 
DISL,ioos:station:DISL:BSCA:1,2011-11-05T16:00:00Z,30.3288,-87.8293,1.726,8.28,1111122 
DISL,ioos:station:DISL:BSCA:1,2011-11-05T16:30:00Z,30.3288,-87.8293,1.714,8.34,1111122 
DISL,ioos:station:DISL:BSCA:1,2011-11-05T17:00:00Z,30.3288,-87.8293,1.726,8.37,1111122 
DISL,ioos:station:DISL:BSCA:1,2011-11-05T17:30:00Z,30.3288,-87.8293,1.749,8.37,1111122 
DISL,ioos:station:DISL:BSCA:1,2011-11-05T18:00:00Z,30.3288,-87.8293,1.776,8.29,1111122 
DISL,ioos:station:DISL:BSCA:1,2011-11-05T18:30:00Z,30.3288,-87.8293,1.793,8.3,1111122 
DISL,ioos:station:DISL:BSCA:1,2011-11-05T19:00:00Z,30.3288,-87.8293,1.804,8.29,1111122 
DISL,ioos:station:DISL:BSCA:1,2011-11-05T19:30:00Z,30.3288,-87.8293,1.812,8.11,1111122 
DISL,ioos:station:DISL:BSCA:1,2011-11-05T20:00:00Z,30.3288,-87.8293,1.807,8.14,1111122 
DISL,ioos:station:DISL:BSCA:1,2011-11-05T20:30:00Z,30.3288,-87.8293,1.81,8.05,1111122 
DISL,ioos:station:DISL:BSCA:1,2011-11-05T21:00:00Z,30.3288,-87.8293,1.82,8.19,1111122 
DISL,ioos:station:DISL:BSCA:1,2011-11-05T21:30:00Z,30.3288,-87.8293,1.83,8.09,1111122 
DISL,ioos:station:DISL:BSCA:1,2011-11-05T22:00:00Z,30.3288,-87.8293,1.841,8.3,1111122 
DISL,ioos:station:DISL:BSCA:1,2011-11-05T22:30:00Z,30.3288,-87.8293,1.864,8.33,1111122 
DISL,ioos:station:DISL:BSCA:1,2011-11-05T23:00:00Z,30.3288,-87.8293,1.879,8.28,1111122 
DISL,ioos:station:DISL:BSCA:1,2011-11-05T23:30:00Z,30.3288,-87.8293,1.892,8.28,1111122 
DISL,ioos:station:DISL:BSCA:1,2011-11-06T00:00:00Z,30.3288,-87.8293,1.913,7.9,1111122 
DISL,ioos:station:DISL:BSCA:1,2011-11-06T00:30:00Z,30.3288,-87.8293,1.923,7.77,1111122 
DISL,ioos:station:DISL:BSCA:1,2011-11-06T01:00:00Z,30.3288,-87.8293,1.941,7.74,1111122 
DISL,ioos:station:DISL:BSCA:1,2011-11-06T01:30:00Z,30.3288,-87.8293,1.94,7.54,1111122 
DISL,ioos:station:DISL:BSCA:1,2011-11-06T02:00:00Z,30.3288,-87.8293,1.963,7.74,1111122 
DISL,ioos:station:DISL:BSCA:1,2011-11-06T02:30:00Z,30.3288,-87.8293,1.946,7.72,1111122 
DISL,ioos:station:DISL:BSCA:1,2011-11-06T03:00:00Z,30.3288,-87.8293,1.973,7.75,1111122 
DISL,ioos:station:DISL:BSCA:1,2011-11-06T03:30:00Z,30.3288,-87.8293,1.947,7.75,1111122 
DISL,ioos:station:DISL:BSCA:1,2011-11-06T04:00:00Z,30.3288,-87.8293,1.927,7.81,1111122 
DISL,ioos:station:DISL:BSCA:1,2011-11-06T04:30:00Z,30.3288,-87.8293,1.901,7.86,1111122 
DISL,ioos:station:DISL:BSCA:1,2011-11-06T05:00:00Z,30.3288,-87.8293,1.869,8.31,1111122 
DISL,ioos:station:DISL:BSCA:1,2011-11-06T05:30:00Z,30.3288,-87.8293,1.822,8.21,1111122 
DISL,ioos:station:DISL:BSCA:1,2011-11-06T06:00:00Z,30.3288,-87.8293,1.796,8.23,1111122 
DISL,ioos:station:DISL:BSCA:1,2011-11-06T16:00:00Z,30.3288,-87.8293,1.638,7.33,1111122 
DISL,ioos:station:DISL:BSCA:1,2011-11-06T16:30:00Z,30.3288,-87.8293,1.923,8.26,1111122 
DISL,ioos:station:DISL:BSCA:1,2011-11-06T16:30:00Z,30.3288,-87.8293,1.654,7.92,1111122 
DISL,ioos:station:DISL:BSCA:1,2011-11-06T17:00:00Z,30.3288,-87.8293,1.926,8.19,1111122 
DISL,ioos:station:DISL:BSCA:1,2011-11-06T17:00:00Z,30.3288,-87.8293,1.644,7.76,1111122 
DISL,ioos:station:DISL:BSCA:1,2011-11-06T17:30:00Z,30.3288,-87.8293,1.941,8.09,1111122 
DISL,ioos:station:DISL:BSCA:1,2011-11-06T17:30:00Z,30.3288,-87.8293,1.657,8.04,1111122 
DISL,ioos:station:DISL:BSCA:1,2011-11-06T18:00:00Z,30.3288,-87.8293,1.97,7.8,1111122 
DISL,ioos:station:DISL:BSCA:1,2011-11-06T18:00:00Z,30.3288,-87.8293,1.72,8.06,1111122 
DISL,ioos:station:DISL:BSCA:1,2011-11-06T18:30:00Z,30.3288,-87.8293,1.998,8.14,1111122 
DISL,ioos:station:DISL:BSCA:1,2011-11-06T18:30:00Z,30.3288,-87.8293,1.785,8.08,1111122 
DISL,ioos:station:DISL:BSCA:1,2011-11-06T19:00:00Z,30.3288,-87.8293,2.033,8.11,1111122 
DISL,ioos:station:DISL:BSCA:1,2011-11-06T19:00:00Z,30.3288,-87.8293,1.826,8.09,1111122 
DISL,ioos:station:DISL:BSCA:1,2011-11-06T19:30:00Z,30.3288,-87.8293,2.059,8.12,1111122 
DISL,ioos:station:DISL:BSCA:1,2011-11-06T19:30:00Z,30.3288,-87.8293,1.852,8.24,1111122 
DISL,ioos:station:DISL:BSCA:1,2011-11-06T20:00:00Z,30.3288,-87.8293,2.09,8.18,1111122 
DISL,ioos:station:DISL:BSCA:1,2011-11-06T20:00:00Z,30.3288,-87.8293,1.851,8.31,1111122 
DISL,ioos:station:DISL:BSCA:1,2011-11-06T20:30:00Z,30.3288,-87.8293,1.975,8.25,1111122 
DISL,ioos:station:DISL:BSCA:1,2011-11-06T20:30:00Z,30.3288,-87.8293,2.109,8.31,1111122 